UAL1168 KLAX-KSFO

Flight info

Callsign UAL1168
Flight time 1h 2m
Altitude 36000
Route SUMMR2 STOKD SERFR SERFR4
Aircraft A21N/M-SDE2E3FGHIRWXY/LB1

Departure

Time 2026-04-20 16:11
Airport Los Angeles International Airport (KLAX)

Arrival

Time 2026-04-20 17:14
Airport San Francisco International Airport (KSFO)
Time Latitude Longitude Altitude Speed Heading
2026-04-20 15:38 33.94103 -118.39878 126 ft 0 kts 305°
2026-04-20 16:00 33.94102 -118.39877 126 ft 2 kts 305°
2026-04-20 16:00 33.94089 -118.39852 120 ft 4 kts 289°
2026-04-20 16:00 33.94086 -118.39827 120 ft 4 kts 231°
2026-04-20 16:00 33.94094 -118.39820 124 ft 1 kts 189°
2026-04-20 16:01 33.94097 -118.39819 124 ft 0 kts 189°
2026-04-20 16:03 33.94083 -118.39822 122 ft 7 kts 189°
2026-04-20 16:04 33.94030 -118.39825 123 ft 7 kts 177°
2026-04-20 16:04 33.93982 -118.39818 123 ft 6 kts 171°
2026-04-20 16:04 33.93954 -118.39810 123 ft 6 kts 162°
2026-04-20 16:04 33.93924 -118.39785 124 ft 5 kts 135°
2026-04-20 16:05 33.93907 -118.39745 123 ft 7 kts 100°
2026-04-20 16:05 33.93912 -118.39664 124 ft 12 kts 83°
2026-04-20 16:05 33.93925 -118.39545 126 ft 17 kts 82°
2026-04-20 16:05 33.93940 -118.39395 121 ft 18 kts 83°
2026-04-20 16:06 33.93957 -118.39247 126 ft 17 kts 83°
2026-04-20 16:06 33.93970 -118.39104 123 ft 17 kts 83°
2026-04-20 16:06 33.93984 -118.38967 124 ft 16 kts 83°
2026-04-20 16:06 33.93997 -118.38835 121 ft 15 kts 83°
2026-04-20 16:07 33.94010 -118.38709 124 ft 15 kts 83°
2026-04-20 16:07 33.94022 -118.38589 126 ft 14 kts 83°
2026-04-20 16:07 33.94033 -118.38475 125 ft 13 kts 83°
2026-04-20 16:07 33.94045 -118.38366 124 ft 13 kts 82°
2026-04-20 16:08 33.94056 -118.38263 123 ft 12 kts 82°
2026-04-20 16:08 33.94066 -118.38166 126 ft 11 kts 83°
2026-04-20 16:08 33.94075 -118.38076 126 ft 11 kts 83°
2026-04-20 16:08 33.94053 -118.38006 126 ft 9 kts 152°
2026-04-20 16:09 33.93995 -118.38002 122 ft 7 kts 205°
2026-04-20 16:09 33.93983 -118.38043 126 ft 0 kts 263°
2026-04-20 16:10 33.93980 -118.38069 124 ft 16 kts 263°
2026-04-20 16:10 33.93934 -118.38521 125 ft 89 kts 263°
2026-04-20 16:10 33.93833 -118.39501 126 ft 144 kts 263°
2026-04-20 16:11 33.93692 -118.40872 177 ft 180 kts 263°
2026-04-20 16:11 33.93539 -118.42351 826 ft 177 kts 263°
2026-04-20 16:11 33.93388 -118.43816 1500 ft 176 kts 262°
2026-04-20 16:11 33.93236 -118.45289 2006 ft 184 kts 262°
2026-04-20 16:12 33.93071 -118.46921 2178 ft 207 kts 263°
2026-04-20 16:12 33.92914 -118.48741 2358 ft 232 kts 264°
2026-04-20 16:12 33.92749 -118.50806 2576 ft 260 kts 264°
2026-04-20 16:12 33.92585 -118.52988 3416 ft 263 kts 264°
2026-04-20 16:13 33.92411 -118.55206 4166 ft 268 kts 263°
2026-04-20 16:13 33.92221 -118.57449 5003 ft 270 kts 263°
2026-04-20 16:13 33.92022 -118.59713 5775 ft 273 kts 262°
2026-04-20 16:13 33.91818 -118.61988 6573 ft 274 kts 262°
2026-04-20 16:14 33.91623 -118.64289 7266 ft 279 kts 264°
2026-04-20 16:14 33.91585 -118.66638 8001 ft 282 kts 268°
2026-04-20 16:14 33.91638 -118.69004 8748 ft 284 kts 269°
2026-04-20 16:14 33.91692 -118.71394 9469 ft 286 kts 268°
2026-04-20 16:15 33.91739 -118.73798 10182 ft 289 kts 268°
2026-04-20 16:15 33.91753 -118.76301 10374 ft 310 kts 266°
2026-04-20 16:15 33.91741 -118.78975 10597 ft 327 kts 266°
2026-04-20 16:15 33.91723 -118.81738 11121 ft 333 kts 266°
2026-04-20 16:16 33.91706 -118.84557 11645 ft 339 kts 267°
2026-04-20 16:16 33.91752 -118.87415 12250 ft 344 kts 269°
2026-04-20 16:16 33.91855 -118.90309 12890 ft 347 kts 270°
2026-04-20 16:16 33.91965 -118.93214 13578 ft 348 kts 269°
2026-04-20 16:17 33.92062 -118.96134 14214 ft 350 kts 269°
2026-04-20 16:17 33.92174 -118.99068 14760 ft 353 kts 272°
2026-04-20 16:17 33.92710 -119.01971 15369 ft 359 kts 287°
2026-04-20 16:17 33.93813 -119.04702 15934 ft 366 kts 298°
2026-04-20 16:18 33.95309 -119.07223 16424 ft 372 kts 302°
2026-04-20 16:18 33.96745 -119.09824 16941 ft 374 kts 297°
2026-04-20 16:18 33.98066 -119.12525 17492 ft 375 kts 296°
2026-04-20 16:18 33.99362 -119.15268 18025 ft 378 kts 296°
2026-04-20 16:19 34.00841 -119.17909 18502 ft 385 kts 306°
2026-04-20 16:19 34.02746 -119.20166 18923 ft 393 kts 318°
2026-04-20 16:19 34.05008 -119.22118 19387 ft 396 kts 321°
2026-04-20 16:19 34.07267 -119.24028 19840 ft 398 kts 321°
2026-04-20 16:20 34.09533 -119.25956 20270 ft 399 kts 321°
2026-04-20 16:20 34.11804 -119.27901 20703 ft 401 kts 320°
2026-04-20 16:20 34.14079 -119.29858 21122 ft 403 kts 320°
2026-04-20 16:20 34.16361 -119.31828 21518 ft 404 kts 320°
2026-04-20 16:21 34.18654 -119.33810 21921 ft 406 kts 320°
2026-04-20 16:21 34.20958 -119.35801 22308 ft 408 kts 320°
2026-04-20 16:21 34.23241 -119.37773 22697 ft 410 kts 320°
2026-04-20 16:21 34.25594 -119.39806 23086 ft 412 kts 320°
2026-04-20 16:22 34.27931 -119.41831 23466 ft 413 kts 320°
2026-04-20 16:22 34.30244 -119.43835 23809 ft 415 kts 320°
2026-04-20 16:22 34.32596 -119.45871 24111 ft 417 kts 320°
2026-04-20 16:22 34.34962 -119.47920 24431 ft 419 kts 320°
2026-04-20 16:23 34.37341 -119.49982 24744 ft 421 kts 320°
2026-04-20 16:23 34.39729 -119.52055 25067 ft 423 kts 320°
2026-04-20 16:23 34.41985 -119.54322 25387 ft 421 kts 311°
2026-04-20 16:23 34.44040 -119.56845 25716 ft 422 kts 310°
2026-04-20 16:24 34.46103 -119.59390 26049 ft 424 kts 310°
2026-04-20 16:24 34.48180 -119.61949 26373 ft 426 kts 310°
2026-04-20 16:24 34.50262 -119.64513 26692 ft 428 kts 310°
2026-04-20 16:24 34.52360 -119.67092 27009 ft 431 kts 310°
2026-04-20 16:25 34.54471 -119.69684 27323 ft 433 kts 310°
2026-04-20 16:25 34.56589 -119.72288 27639 ft 435 kts 310°
2026-04-20 16:25 34.58716 -119.74909 27941 ft 437 kts 310°
2026-04-20 16:25 34.60853 -119.77549 28235 ft 439 kts 310°
2026-04-20 16:26 34.62995 -119.80199 28506 ft 441 kts 310°
2026-04-20 16:26 34.65149 -119.82863 28808 ft 443 kts 310°
2026-04-20 16:26 34.67311 -119.85538 29104 ft 445 kts 310°
2026-04-20 16:26 34.69485 -119.88232 29388 ft 447 kts 310°
2026-04-20 16:27 34.71663 -119.90933 29695 ft 449 kts 310°
2026-04-20 16:27 34.73851 -119.93651 29969 ft 451 kts 310°
2026-04-20 16:27 34.76048 -119.96386 30222 ft 452 kts 310°
2026-04-20 16:27 34.78250 -119.99126 30457 ft 454 kts 310°
2026-04-20 16:28 34.80461 -120.01872 30688 ft 455 kts 310°
2026-04-20 16:28 34.82677 -120.04628 30902 ft 456 kts 311°
2026-04-20 16:28 34.84873 -120.07363 31107 ft 458 kts 310°
2026-04-20 16:28 34.87131 -120.10178 31321 ft 459 kts 311°
2026-04-20 16:29 34.89361 -120.12959 31580 ft 459 kts 311°
2026-04-20 16:29 34.91587 -120.15736 31894 ft 457 kts 311°
2026-04-20 16:29 34.93781 -120.18472 32202 ft 456 kts 311°
2026-04-20 16:29 34.95991 -120.21233 32499 ft 455 kts 311°
2026-04-20 16:30 34.98198 -120.23997 32807 ft 454 kts 311°
2026-04-20 16:30 35.00395 -120.26752 33095 ft 453 kts 311°
2026-04-20 16:30 35.02589 -120.29512 33379 ft 452 kts 311°
2026-04-20 16:30 35.04769 -120.32261 33677 ft 451 kts 311°
2026-04-20 16:31 35.06950 -120.35008 33967 ft 450 kts 311°
2026-04-20 16:31 35.09129 -120.37734 34058 ft 445 kts 312°
2026-04-20 16:31 35.13592 -120.42886 34067 ft 444 kts 315°
2026-04-20 16:32 35.18256 -120.47981 34073 ft 455 kts 315°
2026-04-20 16:32 35.23015 -120.53206 34075 ft 462 kts 314°
2026-04-20 16:33 35.27758 -120.58522 34072 ft 463 kts 314°
2026-04-20 16:33 35.32480 -120.63872 34070 ft 462 kts 314°
2026-04-20 16:34 35.37194 -120.69222 34076 ft 462 kts 314°
2026-04-20 16:34 35.41927 -120.74560 34079 ft 462 kts 314°
2026-04-20 16:35 35.46656 -120.79900 34090 ft 462 kts 314°
2026-04-20 16:35 35.51657 -120.84888 34100 ft 464 kts 320°
2026-04-20 16:36 35.56812 -120.89664 34103 ft 464 kts 319°
2026-04-20 16:36 35.61964 -120.94443 34104 ft 464 kts 319°
2026-04-20 16:37 35.67077 -120.99195 34085 ft 464 kts 319°
2026-04-20 16:37 35.72220 -121.03993 34082 ft 464 kts 319°
2026-04-20 16:38 35.77368 -121.08800 34078 ft 464 kts 319°
2026-04-20 16:38 35.82515 -121.13602 34083 ft 464 kts 319°
2026-04-20 16:39 35.87655 -121.18420 34076 ft 464 kts 319°
2026-04-20 16:39 35.92787 -121.23241 34078 ft 463 kts 319°
2026-04-20 16:40 35.97920 -121.28061 34071 ft 463 kts 319°
2026-04-20 16:40 36.03048 -121.32881 34073 ft 463 kts 319°
2026-04-20 16:41 36.05611 -121.35296 33914 ft 463 kts 319°
2026-04-20 16:41 36.08226 -121.37544 33638 ft 466 kts 324°
2026-04-20 16:41 36.10967 -121.39677 33376 ft 466 kts 324°
2026-04-20 16:41 36.13715 -121.41818 33114 ft 467 kts 324°
2026-04-20 16:42 36.16462 -121.43962 32218 ft 469 kts 324°
2026-04-20 16:42 36.19228 -121.46127 31277 ft 471 kts 324°
2026-04-20 16:42 36.21997 -121.48295 30352 ft 472 kts 323°
2026-04-20 16:42 36.24792 -121.50485 29174 ft 477 kts 323°
2026-04-20 16:43 36.27599 -121.52684 28172 ft 478 kts 323°
2026-04-20 16:43 36.30410 -121.54883 27059 ft 480 kts 324°
2026-04-20 16:43 36.33249 -121.57104 25823 ft 484 kts 323°
2026-04-20 16:43 36.36107 -121.59344 24704 ft 487 kts 323°
2026-04-20 16:44 36.38953 -121.61577 24195 ft 475 kts 323°
2026-04-20 16:44 36.41689 -121.63717 24080 ft 456 kts 323°
2026-04-20 16:44 36.44318 -121.65775 23952 ft 438 kts 323°
2026-04-20 16:44 36.46845 -121.67760 23805 ft 422 kts 323°
2026-04-20 16:45 36.49289 -121.69685 23556 ft 411 kts 322°
2026-04-20 16:45 36.51694 -121.71585 23274 ft 408 kts 322°
2026-04-20 16:45 36.54079 -121.73478 22722 ft 405 kts 322°
2026-04-20 16:45 36.56438 -121.75355 22155 ft 401 kts 322°
2026-04-20 16:46 36.58781 -121.77215 21603 ft 398 kts 322°
2026-04-20 16:46 36.61112 -121.79063 20996 ft 396 kts 322°
2026-04-20 16:46 36.63428 -121.80894 20509 ft 393 kts 323°
2026-04-20 16:46 36.65726 -121.82715 19957 ft 391 kts 323°
2026-04-20 16:47 36.68009 -121.84530 19419 ft 388 kts 323°
2026-04-20 16:47 36.70284 -121.86339 18872 ft 386 kts 323°
2026-04-20 16:47 36.72555 -121.88117 18338 ft 386 kts 326°
2026-04-20 16:47 36.74151 -121.89103 17949 ft 388 kts 334°
2026-04-20 16:48 36.76722 -121.90143 17412 ft 388 kts 344°
2026-04-20 16:48 36.80204 -121.91100 16707 ft 385 kts 345°
2026-04-20 16:48 36.82812 -121.91823 16167 ft 383 kts 345°
2026-04-20 16:48 36.84568 -121.92314 15850 ft 380 kts 345°
2026-04-20 16:49 36.87976 -121.93268 15178 ft 377 kts 345°
2026-04-20 16:49 36.89701 -121.93750 14793 ft 376 kts 345°
2026-04-20 16:49 36.92243 -121.94461 14353 ft 372 kts 345°
2026-04-20 16:49 36.94731 -121.95160 13760 ft 368 kts 345°
2026-04-20 16:50 36.97193 -121.95954 13158 ft 364 kts 342°
2026-04-20 16:50 36.99611 -121.96860 12650 ft 361 kts 340°
2026-04-20 16:50 37.01991 -121.97819 12148 ft 358 kts 340°
2026-04-20 16:50 37.04352 -121.98789 11653 ft 356 kts 339°
2026-04-20 16:51 37.06708 -121.99754 11160 ft 355 kts 340°
2026-04-20 16:51 37.09050 -122.00699 10703 ft 352 kts 340°
2026-04-20 16:51 37.11356 -122.01612 10372 ft 339 kts 340°
2026-04-20 16:51 37.13546 -122.02466 10230 ft 321 kts 341°
2026-04-20 16:52 37.15648 -122.03283 9870 ft 313 kts 340°
2026-04-20 16:52 37.17705 -122.04087 9697 ft 308 kts 340°
2026-04-20 16:52 37.19716 -122.04874 9515 ft 300 kts 340°
2026-04-20 16:52 37.21697 -122.05654 9152 ft 297 kts 340°
2026-04-20 16:53 37.23661 -122.06427 8775 ft 294 kts 340°
2026-04-20 16:53 37.25606 -122.07188 8395 ft 293 kts 340°
2026-04-20 16:53 37.27545 -122.07947 8002 ft 290 kts 340°
2026-04-20 16:53 37.29472 -122.08705 7618 ft 291 kts 341°
2026-04-20 16:54 37.31410 -122.09468 7256 ft 291 kts 340°
2026-04-20 16:54 37.33335 -122.10226 6849 ft 289 kts 341°
2026-04-20 16:54 37.35240 -122.10979 6468 ft 285 kts 341°
2026-04-20 16:54 37.37050 -122.11935 6072 ft 280 kts 326°
2026-04-20 16:55 37.38563 -122.13413 5889 ft 272 kts 311°
2026-04-20 16:55 37.39823 -122.15186 5822 ft 272 kts 308°
2026-04-20 16:55 37.41077 -122.16960 5758 ft 270 kts 308°
2026-04-20 16:55 37.42315 -122.18698 5702 ft 270 kts 308°
2026-04-20 16:56 37.43571 -122.20456 5641 ft 271 kts 308°
2026-04-20 16:56 37.44826 -122.22213 5429 ft 267 kts 308°
2026-04-20 16:56 37.46039 -122.23914 5301 ft 255 kts 308°
2026-04-20 16:56 37.47199 -122.25549 5176 ft 245 kts 308°
2026-04-20 16:57 37.48311 -122.27119 4940 ft 237 kts 308°
2026-04-20 16:57 37.49407 -122.28671 4500 ft 237 kts 308°
2026-04-20 16:57 37.50501 -122.30223 4082 ft 236 kts 308°
2026-04-20 16:57 37.51583 -122.31755 4013 ft 233 kts 308°
2026-04-20 16:58 37.52660 -122.33284 4019 ft 234 kts 308°
2026-04-20 16:58 37.53745 -122.34826 4018 ft 235 kts 308°
2026-04-20 16:58 37.54831 -122.36364 4008 ft 234 kts 308°
2026-04-20 16:58 37.55914 -122.37900 4008 ft 235 kts 308°
2026-04-20 16:59 37.57000 -122.39441 4009 ft 235 kts 308°
2026-04-20 16:59 37.58083 -122.40977 4009 ft 234 kts 308°
2026-04-20 16:59 37.59163 -122.42510 4006 ft 234 kts 308°
2026-04-20 16:59 37.60242 -122.44045 4009 ft 234 kts 308°
2026-04-20 17:00 37.62400 -122.47120 4014 ft 233 kts 308°
2026-04-20 17:00 37.63464 -122.48633 4006 ft 234 kts 308°
2026-04-20 17:00 37.64545 -122.50168 4005 ft 234 kts 308°
2026-04-20 17:01 37.65624 -122.51703 4010 ft 233 kts 308°
2026-04-20 17:01 37.66698 -122.53235 4008 ft 233 kts 308°
2026-04-20 17:01 37.67770 -122.54770 4003 ft 233 kts 308°
2026-04-20 17:01 37.68843 -122.56303 4008 ft 233 kts 308°
2026-04-20 17:02 37.69916 -122.57836 4009 ft 233 kts 308°
2026-04-20 17:02 37.70988 -122.59367 4007 ft 232 kts 308°
2026-04-20 17:02 37.72060 -122.60901 4014 ft 233 kts 308°
2026-04-20 17:02 37.73133 -122.62436 4008 ft 233 kts 308°
2026-04-20 17:03 37.74202 -122.63966 4007 ft 232 kts 308°
2026-04-20 17:03 37.75272 -122.65493 4004 ft 232 kts 308°
2026-04-20 17:03 37.76342 -122.67020 4002 ft 232 kts 308°
2026-04-20 17:03 37.77411 -122.68553 4001 ft 232 kts 308°
2026-04-20 17:04 37.78477 -122.70086 4004 ft 232 kts 308°
2026-04-20 17:04 37.79544 -122.71617 4001 ft 232 kts 308°
2026-04-20 17:04 37.80720 -122.73004 3937 ft 231 kts 326°
2026-04-20 17:04 37.82180 -122.73675 3804 ft 219 kts 351°
2026-04-20 17:05 37.83676 -122.73551 3673 ft 216 kts 16°
2026-04-20 17:05 37.85013 -122.72710 3554 ft 214 kts 40°
2026-04-20 17:05 37.85969 -122.71305 3432 ft 209 kts 64°
2026-04-20 17:05 37.86413 -122.69592 3503 ft 204 kts 86°
2026-04-20 17:06 37.86340 -122.67833 3508 ft 198 kts 108°
2026-04-20 17:06 37.85789 -122.66280 3501 ft 192 kts 129°
2026-04-20 17:06 37.84868 -122.65095 3504 ft 188 kts 148°
2026-04-20 17:06 37.83701 -122.64389 3504 ft 186 kts 166°
2026-04-20 17:07 37.82443 -122.64208 3506 ft 184 kts 180°
2026-04-20 17:07 37.81159 -122.64176 3502 ft 182 kts 180°
2026-04-20 17:07 37.79928 -122.64139 3499 ft 175 kts 179°
2026-04-20 17:07 37.78713 -122.64099 3498 ft 174 kts 180°
2026-04-20 17:08 37.77504 -122.64052 3498 ft 174 kts 176°
2026-04-20 17:08 37.76307 -122.63784 3500 ft 176 kts 166°
2026-04-20 17:08 37.75165 -122.63218 3501 ft 177 kts 156°
2026-04-20 17:08 37.74131 -122.62366 3501 ft 179 kts 144°
2026-04-20 17:09 37.73242 -122.61246 3501 ft 182 kts 134°
2026-04-20 17:09 37.72508 -122.59926 3313 ft 186 kts 127°
2026-04-20 17:09 37.71834 -122.58523 2813 ft 187 kts 125°
2026-04-20 17:09 37.71180 -122.57110 2412 ft 184 kts 124°
2026-04-20 17:10 37.70537 -122.55719 2231 ft 183 kts 124°
2026-04-20 17:10 37.69895 -122.54338 2111 ft 182 kts 124°
2026-04-20 17:10 37.69250 -122.52959 2025 ft 182 kts 124°
2026-04-20 17:10 37.68604 -122.51585 1930 ft 181 kts 124°
2026-04-20 17:11 37.67963 -122.50222 1859 ft 181 kts 124°
2026-04-20 17:11 37.67330 -122.48874 1761 ft 172 kts 124°
2026-04-20 17:11 37.66736 -122.47610 1516 ft 164 kts 124°
2026-04-20 17:11 37.66176 -122.46417 1302 ft 154 kts 124°
2026-04-20 17:12 37.65634 -122.45269 1088 ft 150 kts 125°
2026-04-20 17:12 37.65111 -122.44163 895 ft 144 kts 123°
2026-04-20 17:12 37.64605 -122.43090 712 ft 141 kts 121°
2026-04-20 17:12 37.64093 -122.42006 559 ft 145 kts 121°
2026-04-20 17:13 37.63580 -122.40920 348 ft 141 kts 121°
2026-04-20 17:13 37.63096 -122.39871 163 ft 135 kts 118°
2026-04-20 17:13 37.62669 -122.38850 36 ft 126 kts 117°
2026-04-20 17:13 37.62299 -122.37972 22 ft 85 kts 118°
2026-04-20 17:14 37.62146 -122.37608 22 ft 29 kts 119°
2026-04-20 17:14 37.62024 -122.37487 22 ft 21 kts 194°
2026-04-20 17:14 37.61898 -122.37564 22 ft 20 kts 208°
2026-04-20 17:14 37.61794 -122.37668 25 ft 19 kts 248°
2026-04-20 17:15 37.61813 -122.37819 22 ft 17 kts 289°
2026-04-20 17:15 37.61859 -122.37950 22 ft 16 kts 296°
2026-04-20 17:15 37.61909 -122.38066 23 ft 14 kts 298°
2026-04-20 17:15 37.61954 -122.38174 24 ft 13 kts 297°
2026-04-20 17:16 37.61996 -122.38274 22 ft 12 kts 298°
2026-04-20 17:16 37.62036 -122.38370 23 ft 12 kts 298°
2026-04-20 17:16 37.62075 -122.38463 24 ft 12 kts 298°
2026-04-20 17:16 37.62112 -122.38549 23 ft 11 kts 298°
2026-04-20 17:17 37.62127 -122.38586 24 ft 0 kts 298°
2026-04-20 17:18 37.62149 -122.38618 22 ft 11 kts 321°
2026-04-20 17:18 37.62219 -122.38655 24 ft 12 kts 322°
2026-04-20 17:18 37.62287 -122.38790 24 ft 20 kts 298°
2026-04-20 17:19 37.62332 -122.38927 22 ft 14 kts 265°
2026-04-20 17:19 37.62268 -122.39003 22 ft 13 kts 213°
2026-04-20 17:19 37.62226 -122.39095 24 ft 11 kts 239°
2026-04-20 17:19 37.62164 -122.39149 24 ft 11 kts 208°
2026-04-20 17:20 37.62099 -122.39193 22 ft 10 kts 208°
2026-04-20 17:20 37.62036 -122.39195 22 ft 10 kts 144°
2026-04-20 17:20 37.62000 -122.39122 23 ft 10 kts 117°
2026-04-20 17:20 37.61967 -122.39043 22 ft 10 kts 117°
2026-04-20 17:21 37.61931 -122.38963 22 ft 10 kts 133°
2026-04-20 17:21 37.61863 -122.38933 22 ft 10 kts 160°
2026-04-20 17:21 37.61810 -122.38908 22 ft 8 kts 159°
2026-04-20 17:21 37.61781 -122.38895 22 ft 2 kts 159°
2026-04-20 17:22 37.61769 -122.38889 22 ft 2 kts 159°
2026-04-20 17:22 37.61768 -122.38889 22 ft 0 kts 159°